Time,TemperatureF,DewpointF,PressureIn,WindDirection,WindDirectionDegrees,WindSpeedMPH,WindSpeedGustMPH,Humidity,HourlyPrecipIn,Conditions,Clouds,dailyrainin,SoftwareType,DateUTC
2013-02-09 00:10:00,36.3,35.8,29.81,SW,225,0.0,-999.0,98,-99.99,,,0.00,Acu-Link.com,2013-02-09 08:10:00,
2013-02-09 00:25:00,35.4,34.9,29.82,SW,225,0.0,-999.0,98,-99.99,,,0.00,Acu-Link.com,2013-02-09 08:25:00,
2013-02-09 00:41:00,34.9,34.4,29.82,South,180,0.0,-999.0,98,-99.99,,,0.00,Acu-Link.com,2013-02-09 08:41:00,
2013-02-09 00:56:00,34.2,33.7,29.82,SSW,202,0.0,-999.0,98,-99.99,,,0.00,Acu-Link.com,2013-02-09 08:56:00,
2013-02-09 01:11:00,34.3,33.8,29.83,SSW,202,0.0,-999.0,98,-99.99,,,0.00,Acu-Link.com,2013-02-09 09:11:00,
2013-02-09 01:26:00,33.3,32.8,29.82,East,90,0.0,-999.0,98,-99.99,,,0.00,Acu-Link.com,2013-02-09 09:26:00,
2013-02-09 01:41:00,33.4,32.9,29.83,South,180,0.0,-999.0,98,-99.99,,,0.00,Acu-Link.com,2013-02-09 09:41:00,
2013-02-09 01:56:00,33.3,32.8,29.83,SW,225,0.0,-999.0,98,-99.99,,,0.00,Acu-Link.com,2013-02-09 09:56:00,
2013-02-09 02:11:00,32.5,32.0,29.83,SE,135,0.0,-999.0,98,-99.99,,,0.00,Acu-Link.com,2013-02-09 10:11:00,
2013-02-09 02:26:00,32.5,32.0,29.84,SSE,157,0.0,-999.0,98,-99.99,,,0.00,Acu-Link.com,2013-02-09 10:26:00,
2013-02-09 02:41:00,32.4,31.9,29.83,SSE,157,0.0,-999.0,98,-99.99,,,0.00,Acu-Link.com,2013-02-09 10:41:00,
2013-02-09 02:57:00,32.0,31.5,29.83,SSW,202,0.0,-999.0,98,-99.99,,,0.00,Acu-Link.com,2013-02-09 10:57:00,
2013-02-09 03:12:00,31.8,31.3,29.83,SSW,202,0.0,-999.0,98,-99.99,,,0.00,Acu-Link.com,2013-02-09 11:12:00,
2013-02-09 03:27:00,31.6,31.1,29.83,South,180,0.0,-999.0,98,-99.99,,,0.00,Acu-Link.com,2013-02-09 11:27:00,
2013-02-09 03:42:00,30.6,30.1,29.83,SW,225,0.0,-999.0,98,-99.99,,,0.00,Acu-Link.com,2013-02-09 11:42:00,
2013-02-09 03:57:00,30.6,30.1,29.82,SSE,157,0.0,-999.0,98,-99.99,,,0.00,Acu-Link.com,2013-02-09 11:57:00,
2013-02-09 04:12:00,30.7,30.2,29.83,SSW,202,0.0,-999.0,98,-99.99,,,0.00,Acu-Link.com,2013-02-09 12:12:00,
2013-02-09 04:27:00,30.2,29.7,29.84,South,180,0.0,-999.0,98,-99.99,,,0.00,Acu-Link.com,2013-02-09 12:27:00,
2013-02-09 04:42:00,30.4,29.9,29.84,NNE,22,0.0,-999.0,98,-99.99,,,0.00,Acu-Link.com,2013-02-09 12:42:00,
2013-02-09 04:57:00,30.0,29.5,29.84,SSE,157,0.0,-999.0,98,-99.99,,,0.00,Acu-Link.com,2013-02-09 12:57:00,
2013-02-09 05:13:00,30.0,29.5,29.84,SSW,202,0.0,-999.0,98,-99.99,,,0.00,Acu-Link.com,2013-02-09 13:13:00,
2013-02-09 05:28:00,30.2,29.7,29.85,SSW,202,0.0,-999.0,98,-99.99,,,0.00,Acu-Link.com,2013-02-09 13:28:00,
2013-02-09 05:43:00,30.2,29.7,29.84,WSW,247,0.0,-999.0,98,-99.99,,,0.00,Acu-Link.com,2013-02-09 13:43:00,
2013-02-09 05:58:00,29.8,29.3,29.86,SSE,157,0.0,-999.0,98,-99.99,,,0.00,Acu-Link.com,2013-02-09 13:58:00,
2013-02-09 06:13:00,29.7,29.2,29.86,East,90,0.0,-999.0,98,-99.99,,,0.00,Acu-Link.com,2013-02-09 14:13:00,
2013-02-09 06:28:00,29.1,28.6,29.86,South,180,0.0,-999.0,98,-99.99,,,0.00,Acu-Link.com,2013-02-09 14:28:00,
2013-02-09 06:43:00,28.9,28.4,29.87,ESE,112,0.0,-999.0,98,-99.99,,,0.00,Acu-Link.com,2013-02-09 14:43:00,
2013-02-09 06:58:00,28.9,28.4,29.87,South,180,0.0,-999.0,98,-99.99,,,0.00,Acu-Link.com,2013-02-09 14:58:00,
2013-02-09 07:13:00,28.9,28.4,29.87,SSW,202,0.0,-999.0,98,-99.99,,,0.00,Acu-Link.com,2013-02-09 15:13:00,
2013-02-09 07:28:00,29.8,29.3,29.87,SSW,202,0.0,-999.0,98,-99.99,,,0.00,Acu-Link.com,2013-02-09 15:28:00,
2013-02-09 07:44:00,30.6,30.1,29.87,East,90,0.0,-999.0,98,-99.99,,,0.00,Acu-Link.com,2013-02-09 15:44:00,
2013-02-09 07:59:00,31.5,31.0,29.88,South,180,0.0,-999.0,98,-99.99,,,0.00,Acu-Link.com,2013-02-09 15:59:00,
2013-02-09 08:14:00,32.0,31.5,29.88,SSE,157,0.0,-999.0,98,-99.99,,,0.00,Acu-Link.com,2013-02-09 16:14:00,
2013-02-09 08:29:00,36.9,36.4,29.89,NNW,337,0.0,-999.0,98,-99.99,,,0.01,Acu-Link.com,2013-02-09 16:29:00,
2013-02-09 08:44:00,41.4,40.9,29.90,NE,45,0.0,-999.0,98,-99.99,,,0.01,Acu-Link.com,2013-02-09 16:44:00,
2013-02-09 08:59:00,43.2,42.7,29.90,East,90,0.0,-999.0,98,-99.99,,,0.01,Acu-Link.com,2013-02-09 16:59:00,
2013-02-09 09:14:00,46.8,46.3,29.90,South,180,1.1,-999.0,98,-99.99,,,0.01,Acu-Link.com,2013-02-09 17:14:00,
2013-02-09 09:29:00,52.0,51.5,29.91,NE,45,0.0,-999.0,98,-99.99,,,0.01,Acu-Link.com,2013-02-09 17:29:00,
2013-02-09 09:44:00,58.3,57.7,29.91,ENE,67,1.1,-999.0,98,-99.99,,,0.01,Acu-Link.com,2013-02-09 17:44:00,
2013-02-09 10:00:00,62.4,61.8,29.91,WSW,247,0.0,-999.0,98,-99.99,,,0.01,Acu-Link.com,2013-02-09 18:00:00,
2013-02-09 10:15:00,64.4,45.4,29.92,SSW,202,1.7,-999.0,50,-99.99,,,0.01,Acu-Link.com,2013-02-09 18:15:00,
2013-02-09 10:30:00,64.9,-37.9,29.92,NNW,337,0.0,-999.0,1,-99.99,,,0.01,Acu-Link.com,2013-02-09 18:30:00,
2013-02-09 10:45:00,64.9,-37.9,29.92,ESE,112,2.2,-999.0,1,-99.99,,,0.01,Acu-Link.com,2013-02-09 18:45:00,
2013-02-09 11:00:00,66.9,-36.7,29.93,SSW,202,0.0,-999.0,1,-99.99,,,0.01,Acu-Link.com,2013-02-09 19:00:00,
2013-02-09 11:15:00,67.3,-36.4,29.93,West,270,0.0,-999.0,1,-99.99,,,0.01,Acu-Link.com,2013-02-09 19:15:00,
2013-02-09 11:30:00,67.6,-36.3,29.91,ESE,112,2.7,-999.0,1,-99.99,,,0.01,Acu-Link.com,2013-02-09 19:30:00,
2013-02-09 11:45:00,66.9,-36.7,29.91,SE,135,0.0,-999.0,1,-99.99,,,0.01,Acu-Link.com,2013-02-09 19:45:00,
2013-02-09 12:00:00,66.7,-36.8,29.91,SSE,157,0.0,-999.0,1,-99.99,,,0.01,Acu-Link.com,2013-02-09 20:00:00,
2013-02-09 12:16:00,64.8,-37.9,29.91,WSW,247,3.2,-999.0,1,-99.99,,,0.01,Acu-Link.com,2013-02-09 20:16:00,
2013-02-09 12:31:00,64.8,-37.9,29.91,WSW,247,2.2,-999.0,1,-99.99,,,0.01,Acu-Link.com,2013-02-09 20:31:00,
2013-02-09 12:46:00,64.0,-38.4,29.90,SSW,202,3.2,-999.0,1,-99.99,,,0.01,Acu-Link.com,2013-02-09 20:46:00,
2013-02-09 13:01:00,62.4,-39.4,29.90,West,270,4.7,-999.0,1,-99.99,,,0.01,Acu-Link.com,2013-02-09 21:01:00,
2013-02-09 13:16:00,63.0,-39.0,29.91,East,90,3.7,-999.0,1,-99.99,,,0.01,Acu-Link.com,2013-02-09 21:16:00,
2013-02-09 13:31:00,58.8,-41.6,29.90,NE,45,2.7,-999.0,1,-99.99,,,0.01,Acu-Link.com,2013-02-09 21:31:00,
2013-02-09 13:46:00,59.7,-41.0,29.89,ESE,112,1.7,-999.0,1,-99.99,,,0.01,Acu-Link.com,2013-02-09 21:46:00,
2013-02-09 14:02:00,61.9,-39.7,29.90,SW,225,3.2,-999.0,1,-99.99,,,0.01,Acu-Link.com,2013-02-09 22:02:00,
2013-02-09 14:17:00,61.0,-40.2,29.90,West,270,3.2,-999.0,1,-99.99,,,0.01,Acu-Link.com,2013-02-09 22:17:00,
2013-02-09 14:32:00,63.3,-38.9,29.90,South,180,3.2,-999.0,1,-99.99,,,0.01,Acu-Link.com,2013-02-09 22:32:00,
2013-02-09 14:47:00,62.8,-39.2,29.89,South,180,5.8,-999.0,1,-99.99,,,0.01,Acu-Link.com,2013-02-09 22:47:00,
2013-02-09 15:02:00,62.1,-39.6,29.89,East,90,1.1,-999.0,1,-99.99,,,0.01,Acu-Link.com,2013-02-09 23:02:00,
2013-02-09 15:17:00,63.0,-39.0,29.89,South,180,1.7,-999.0,1,-99.99,,,0.01,Acu-Link.com,2013-02-09 23:17:00,
2013-02-09 15:32:00,61.9,-39.7,29.89,WNW,292,4.2,-999.0,1,-99.99,,,0.01,Acu-Link.com,2013-02-09 23:32:00,
2013-02-09 15:47:00,61.3,-40.1,29.89,SW,225,1.7,-999.0,1,-99.99,,,0.01,Acu-Link.com,2013-02-09 23:47:00,
2013-02-09 16:03:00,60.3,31.1,29.90,West,270,3.7,-999.0,33,-99.99,,,0.01,Acu-Link.com,2013-02-10 00:03:00,
2013-02-09 16:18:00,58.6,-41.7,29.90,SSE,157,4.2,-999.0,1,-99.99,,,0.01,Acu-Link.com,2013-02-10 00:18:00,
2013-02-09 16:33:00,57.9,56.8,29.89,SSW,202,1.1,-999.0,96,-99.99,,,0.01,Acu-Link.com,2013-02-10 00:33:00,
2013-02-09 16:48:00,55.6,-43.5,29.89,WSW,247,4.7,-999.0,1,-99.99,,,0.01,Acu-Link.com,2013-02-10 00:48:00,
2013-02-09 17:03:00,53.8,53.0,29.89,SSE,157,1.1,-999.0,97,-99.99,,,0.01,Acu-Link.com,2013-02-10 01:03:00,
2013-02-09 17:18:00,52.2,51.7,29.90,WSW,247,1.7,-999.0,98,-99.99,,,0.01,Acu-Link.com,2013-02-10 01:18:00,
2013-02-09 17:33:00,51.1,50.6,29.90,SW,225,4.2,-999.0,98,-99.99,,,0.01,Acu-Link.com,2013-02-10 01:33:00,
2013-02-09 17:48:00,50.0,49.5,29.90,SW,225,2.7,-999.0,98,-99.99,,,0.01,Acu-Link.com,2013-02-10 01:48:00,
2013-02-09 18:03:00,48.7,48.2,29.90,South,180,0.0,-999.0,98,-99.99,,,0.01,Acu-Link.com,2013-02-10 02:03:00,
2013-02-09 18:19:00,47.8,47.3,29.91,West,270,1.7,-999.0,98,-99.99,,,0.01,Acu-Link.com,2013-02-10 02:19:00,
2013-02-09 18:34:00,47.1,46.6,29.91,ESE,112,0.0,-999.0,98,-99.99,,,0.01,Acu-Link.com,2013-02-10 02:34:00,
2013-02-09 18:49:00,46.6,46.1,29.92,ENE,67,1.1,-999.0,98,-99.99,,,0.01,Acu-Link.com,2013-02-10 02:49:00,
2013-02-09 19:04:00,45.9,45.4,29.92,ENE,67,0.0,-999.0,98,-99.99,,,0.01,Acu-Link.com,2013-02-10 03:04:00,
2013-02-09 19:19:00,45.7,45.2,29.93,NW,315,0.0,-999.0,98,-99.99,,,0.01,Acu-Link.com,2013-02-10 03:19:00,
2013-02-09 19:34:00,44.1,43.6,29.92,East,90,0.0,-999.0,98,-99.99,,,0.01,Acu-Link.com,2013-02-10 03:34:00,
2013-02-09 19:49:00,43.0,42.5,29.92,SE,135,0.0,-999.0,98,-99.99,,,0.01,Acu-Link.com,2013-02-10 03:49:00,
2013-02-09 20:05:00,41.9,41.4,29.93,SW,225,0.0,-999.0,98,-99.99,,,0.01,Acu-Link.com,2013-02-10 04:05:00,
2013-02-09 20:20:00,41.4,40.9,29.93,North,0,0.0,-999.0,98,-99.99,,,0.01,Acu-Link.com,2013-02-10 04:20:00,
2013-02-09 20:35:00,41.0,40.5,29.94,ESE,112,0.0,-999.0,98,-99.99,,,0.01,Acu-Link.com,2013-02-10 04:35:00,
2013-02-09 20:50:00,40.6,40.1,29.94,SSE,157,0.0,-999.0,98,-99.99,,,0.01,Acu-Link.com,2013-02-10 04:50:00,
2013-02-09 21:05:00,40.1,39.6,29.94,South,180,0.0,-999.0,98,-99.99,,,0.01,Acu-Link.com,2013-02-10 05:05:00,
2013-02-09 21:20:00,39.9,39.4,29.94,South,180,0.0,-999.0,98,-99.99,,,0.01,Acu-Link.com,2013-02-10 05:20:00,
2013-02-09 21:35:00,38.8,38.3,29.95,SSE,157,0.0,-999.0,98,-99.99,,,0.01,Acu-Link.com,2013-02-10 05:35:00,
2013-02-09 21:50:00,38.7,38.2,29.95,SSE,157,0.0,-999.0,98,-99.99,,,0.01,Acu-Link.com,2013-02-10 05:50:00,
2013-02-09 22:05:00,39.2,38.7,29.95,West,270,0.0,-999.0,98,-99.99,,,0.01,Acu-Link.com,2013-02-10 06:05:00,
2013-02-09 22:21:00,38.7,38.2,29.95,SE,135,0.0,-999.0,98,-99.99,,,0.01,Acu-Link.com,2013-02-10 06:21:00,
2013-02-09 22:36:00,38.5,38.0,29.95,SSE,157,0.0,-999.0,98,-99.99,,,0.01,Acu-Link.com,2013-02-10 06:36:00,
2013-02-09 22:51:00,37.6,37.1,29.96,South,180,0.0,-999.0,98,-99.99,,,0.01,Acu-Link.com,2013-02-10 06:51:00,
2013-02-09 23:06:00,36.7,36.2,29.96,SSE,157,0.0,-999.0,98,-99.99,,,0.01,Acu-Link.com,2013-02-10 07:06:00,
2013-02-09 23:21:00,36.7,36.2,29.97,ESE,112,0.0,-999.0,98,-99.99,,,0.01,Acu-Link.com,2013-02-10 07:21:00,
2013-02-09 23:36:00,36.5,36.0,29.97,South,180,0.0,-999.0,98,-99.99,,,0.01,Acu-Link.com,2013-02-10 07:36:00,
2013-02-09 23:51:00,36.3,35.8,29.98,South,180,0.0,-999.0,98,-99.99,,,0.01,Acu-Link.com,2013-02-10 07:51:00,